Home > Weather > Ingolstadt > Past weeks

Flag for Germany Weather for the Past 2 Weeks in Ingolstadt, Bavaria, Germany

Now
34 °F

Broken clouds.


Feels Like: 26 °F
Forecast: 33 / 39 °F
Wind: 10 mph from West

Location: Ingolstadt Airport

Current Time: Feb 10, 2016 at 8:49:34 AM

Latest Report: Feb 10, 2016 at 8:20 AM


Visibility: N/A

Pressure: 29.45 "Hg

Humidity: 93%

Dew point: 32 °F

Location of IngolstadtLocation

Historic Weather in Ingolstadt — Graph

°F

Ingolstadt Temperature Yesterday

Maximum temperature yesterday: 52 °F (at 2:20 PM)
Minimum temperature yesterday: 41 °F (at 11:20 PM)
Average temperature yesterday: 46 °F

High & Low Weather Summary for the Past Weeks

 TemperatureHumidityPressure
High57 °F (Feb 8, 2:20 PM)100% (Jan 26, 7:20 AM)30.45 "Hg (Jan 26, 7:20 AM)
Low28 °F (Jan 27, 3:20 AM)44% (Feb 8, 2:20 PM)29.24 "Hg (Feb 9, 6:20 PM)
Average42 °F83%30.06 "Hg
* Reported Jan 26 7:20 AM — Feb 10 7:20 AM, Ingolstadt, Weather by CustomWeather, © 2016

Note: Actual official high and low records may vary slightly from our data, if they occured in-between our weather recording intervals... More about our weather records

Advertising

Ingolstadt Weather History for the Previous 24 Hours

 ConditionsComfort  
Time TempWeatherWind HumidityBarometerVisibility
7:20 AM
Wed, Feb 10
34 °FPartly cloudy.12 mph93%29.42 "HgN/A
6:20 AM32 °FLight snow. Passing clouds.2 mph100%29.39 "Hg4 mi
5:20 AM32 °FLight snow. Partly cloudy.3 mph100%29.39 "Hg4 mi
4:20 AM34 °FChilly.8 mph93%29.39 "Hg1 mi
3:20 AM36 °FChilly.15 mph93%29.36 "Hg1 mi
2:20 AM39 °FChilly.12 mph75%29.36 "HgN/A
1:20 AM41 °FQuite cool.9 mph70%29.33 "HgN/A
12:20 AM39 °FChilly.12 mph81%29.33 "HgN/A
11:20 PM
Tue, Feb 9
41 °FQuite cool.16 mph76%29.33 "HgN/A
10:20 PM46 °FCool.21 mph66%29.27 "HgN/A
9:20 PM45 °FQuite cool.36 mph76%29.27 "Hg2 mi
8:20 PM52 °FCool.9 mph58%29.24 "HgN/A
7:20 PM48 °FCool.6 mph71%29.24 "HgN/A
6:20 PM46 °FLight rain. Partly cloudy.2 mph82%29.24 "HgN/A
5:20 PM46 °FPartly sunny.3 mph82%29.27 "HgN/A
4:20 PM50 °FLight rain. Broken clouds.3 mph67%29.30 "HgN/A
3:20 PM50 °FBroken clouds.2 mph67%29.33 "HgN/A
2:20 PM52 °FPartly sunny.6 mph62%29.39 "HgN/A
1:20 PM50 °FPartly sunny.7 mph67%29.42 "HgN/A
12:20 PM48 °FBroken clouds.8 mph71%29.50 "HgN/A
11:20 AM46 °FLight rain. Partly sunny.6 mph76%29.59 "HgN/A
10:20 AM45 °FPartly sunny.7 mph81%29.62 "HgN/A
9:20 AM45 °FPartly sunny.3 mph81%29.65 "HgN/A
8:20 AM43 °FPartly sunny.6 mph81%29.68 "HgN/A
Weather by CustomWeather, © 2016

See weather overviewHow to use our weather pages